Le Mars, IA

5:03 PM CDT on May 26, 2018 (GMT -0500)
Le Mars Municipal

Weather History for KLRJ - October, 2011

Change the Weather History Date:

Friday, October 7, 2011

  Actual Average Record
Temperature  
Mean Temperature 76 °F -  
Max Temperature 82 °F 68 °F 89 °F (1980)
Min Temperature 69 °F 40 °F 12 °F (2012)
Cooling Degree Days 10    
Growing Degree Days 26 (Base 50)    
Moisture  
Dew Point 54 °F    
Average Humidity 45    
Maximum Humidity 53    
Minimum Humidity 33    
Precipitation  
Precipitation 0.00 in - - ()
Sea Level Pressure  
Sea Level Pressure 29.85 in    
Wind  
Wind Speed 22 mph (South)    
Max Wind Speed 33 mph    
Max Gust Speed 45 mph    
Visibility 10 miles    
Events      
Averages and records for this station are not official NWS values.
T = Trace of Precipitation, MM = Missing Value Source: NWS Daily Summary

Daily Weather History Graph

Daily Weather History Graph

Search for Another Location

Airport or City:

Astronomy

Oct. 07, 2011 Rise Set
Actual Time 7:28 AM CDT 6:56 PM CDT
Civil Twilight 7:00 AM CDT 7:24 PM CDT
Nautical Twilight 6:27 AM CDT 7:56 PM CDT
Astronomical Twilight 5:54 AM CDT 8:29 PM CDT
Moon 4:44 PM CDT (10/7) 3:12 AM CDT (10/7)
Length of Visible Light 12h 24m
Length of Day
11h 27m
Waxing Gibbous, 83% of the Moon is Illuminated
Oct 7
Waxing Gibbous
Oct 11
Full
Oct 19
Last Quarter
Oct 26
New
Nov 2
First Quarter

Hourly Weather History & Observations

Time (CDT) Temp. Heat Index Dew Point Humidity Pressure Visibility Wind Dir Wind Speed Gust Speed Precip Events Conditions
12:15 AM 71.6 °F - 41.0 °F 33% 29.84 in 10.0 mi South 17.3 mph 25.3 mph N/A   Clear
12:35 AM 71.6 °F - 42.8 °F 35% 29.84 in 10.0 mi South 17.3 mph 25.3 mph N/A   Clear
12:55 AM 71.6 °F - 42.8 °F 35% 29.84 in 10.0 mi South 19.6 mph 26.5 mph N/A   Clear
1:35 AM 71.6 °F - 42.8 °F 35% 29.84 in 10.0 mi South 17.3 mph 27.6 mph N/A   Clear
1:55 AM 71.6 °F - 44.6 °F 38% 29.86 in 10.0 mi South 18.4 mph 26.5 mph N/A   Clear
2:15 AM 69.8 °F - 44.6 °F 40% 29.85 in 10.0 mi South 16.1 mph 27.6 mph N/A   Clear
7:35 AM 69.8 °F - 48.2 °F 46% 29.83 in 10.0 mi South 20.7 mph 34.5 mph N/A   Clear
7:55 AM 69.8 °F - 48.2 °F 46% 29.84 in 10.0 mi South 21.9 mph 29.9 mph N/A   Clear
8:15 AM 69.8 °F - 48.2 °F 46% 29.83 in 10.0 mi South 19.6 mph 29.9 mph N/A   Clear
8:35 AM 69.8 °F - 48.2 °F 46% 29.84 in 10.0 mi South 25.3 mph 34.5 mph N/A   Clear
8:55 AM 69.8 °F - 48.2 °F 46% 29.83 in 10.0 mi South 25.3 mph 34.5 mph N/A   Clear
9:35 AM 71.6 °F - 50.0 °F 46% 29.83 in 7.0 mi South 31.1 mph 39.1 mph N/A   Clear
9:55 AM 73.4 °F - 50.0 °F 44% 29.84 in 7.0 mi South 26.5 mph 40.3 mph N/A   Clear
10:15 AM 73.4 °F - 50.0 °F 44% 29.84 in 10.0 mi South 33.4 mph 44.9 mph N/A   Clear
10:35 AM 73.4 °F - 51.8 °F 47% 29.84 in 10.0 mi SSW 29.9 mph 40.3 mph N/A   Clear
10:55 AM 75.2 °F - 51.8 °F 44% 29.85 in 7.0 mi South 27.6 mph 43.7 mph N/A   Clear
11:55 AM 78.8 °F - 53.6 °F 42% 29.84 in 10.0 mi SSW 27.6 mph 42.6 mph N/A   Clear
12:15 PM 78.8 °F - 53.6 °F 42% 29.84 in 10.0 mi South 29.9 mph 40.3 mph N/A   Clear
12:35 PM 80.6 °F 80.3 °F 53.6 °F 39% 29.84 in 10.0 mi South 28.8 mph 41.4 mph N/A   Clear
12:55 PM 80.6 °F 80.3 °F 53.6 °F 39% 29.84 in 10.0 mi South 27.6 mph 40.3 mph N/A   Scattered Clouds
1:15 PM 82.4 °F 81.4 °F 53.6 °F 37% 29.83 in 10.0 mi South 26.5 mph 36.8 mph N/A   Scattered Clouds
1:35 PM 82.4 °F 81.7 °F 55.4 °F 39% 29.83 in 10.0 mi South 27.6 mph 34.5 mph N/A   Mostly Cloudy
1:55 PM 82.4 °F 81.7 °F 55.4 °F 39% 29.83 in 10.0 mi South 27.6 mph 33.4 mph N/A   Mostly Cloudy
2:35 PM 80.6 °F 80.5 °F 55.4 °F 42% 29.82 in 10.0 mi South 26.5 mph 36.8 mph N/A   Overcast
3:15 PM 80.6 °F 80.8 °F 57.2 °F 45% 29.82 in 10.0 mi SSW 25.3 mph 34.5 mph N/A   Overcast
3:55 PM 80.6 °F 80.8 °F 57.2 °F 45% 29.82 in 10.0 mi South 24.2 mph 33.4 mph N/A   Scattered Clouds
4:15 PM 80.6 °F 80.8 °F 57.2 °F 45% 29.82 in 10.0 mi SSW 25.3 mph 34.5 mph N/A   Mostly Cloudy
4:35 PM 80.6 °F 80.8 °F 57.2 °F 45% 29.82 in 10.0 mi South 24.2 mph 34.5 mph N/A   Overcast
4:55 PM 80.6 °F 80.8 °F 57.2 °F 45% 29.83 in 10.0 mi South 23.0 mph 31.1 mph N/A   Overcast
5:15 PM 80.6 °F 80.8 °F 57.2 °F 45% 29.83 in 10.0 mi South 23.0 mph 31.1 mph N/A   Mostly Cloudy
5:35 PM 80.6 °F 80.8 °F 57.2 °F 45% 29.83 in 10.0 mi South 24.2 mph 32.2 mph N/A   Overcast
5:55 PM 80.6 °F 80.8 °F 57.2 °F 45% 29.84 in 10.0 mi South 20.7 mph 26.5 mph N/A   Overcast
6:15 PM 80.6 °F 81.1 °F 59.0 °F 48% 29.84 in 10.0 mi South 19.6 mph 25.3 mph N/A   Overcast
6:35 PM 80.6 °F 81.1 °F 59.0 °F 48% 29.84 in 10.0 mi South 20.7 mph 26.5 mph N/A   Overcast
6:55 PM 80.6 °F 81.1 °F 59.0 °F 48% 29.84 in 10.0 mi South 18.4 mph 26.5 mph N/A   Mostly Cloudy
7:15 PM 78.8 °F - 59.0 °F 51% 29.85 in 10.0 mi South 16.1 mph 21.9 mph N/A   Mostly Cloudy
7:35 PM 78.8 °F - 59.0 °F 51% 29.85 in 10.0 mi South 16.1 mph 23.0 mph N/A   Overcast
7:55 PM 78.8 °F - 57.2 °F 47% 29.86 in 10.0 mi South 16.1 mph 26.5 mph N/A   Overcast
8:15 PM 78.8 °F - 57.2 °F 47% 29.87 in 10.0 mi South 17.3 mph 26.5 mph N/A   Overcast
8:35 PM 78.8 °F - 57.2 °F 47% 29.88 in 10.0 mi South 16.1 mph 24.2 mph N/A   Mostly Cloudy
8:55 PM 78.8 °F - 57.2 °F 47% 29.89 in 10.0 mi South 17.3 mph 23.0 mph N/A   Mostly Cloudy
9:15 PM 78.8 °F - 57.2 °F 47% 29.89 in 10.0 mi South 17.3 mph 24.2 mph N/A   Overcast
9:35 PM 78.8 °F - 57.2 °F 47% 29.89 in 10.0 mi South 18.4 mph 25.3 mph N/A   Overcast
10:15 PM 78.8 °F - 57.2 °F 47% 29.91 in 10.0 mi South 23.0 mph 29.9 mph N/A   Mostly Cloudy
10:35 PM 77.0 °F - 57.2 °F 50% 29.91 in 10.0 mi South 23.0 mph 33.4 mph N/A   Scattered Clouds
10:55 PM 75.2 °F - 57.2 °F 53% 29.91 in 10.0 mi South 21.9 mph 32.2 mph N/A   Clear
11:15 PM 75.2 °F - 57.2 °F 53% 29.91 in 10.0 mi South 19.6 mph 28.8 mph N/A   Clear
11:35 PM 75.2 °F - 57.2 °F 53% 29.91 in 10.0 mi South 18.4 mph 25.3 mph N/A   Scattered Clouds
11:55 PM 75.2 °F - 57.2 °F 53% 29.92 in 10.0 mi South 17.3 mph 26.5 mph N/A   Mostly Cloudy